カタログに戻る

GEESAT 6-03

運用中通信LEO
NORAD 65715·PAYLOAD·🇨🇳 China

打ち上げ Sep 24, 2025 から Yellow Sea Launch Area

Loading…

次のパス (今後24時間)

TLE

最新Source: Space-Track

元期: Sep 14, 2026, 11:18 UTC

1 65715U 25214D   26257.47149936  .00001172  00000-0  16802-3 0  9994
2 65715  49.9815 254.2558 0012739 208.7074 151.3164 14.83554230 52769

AllMySatでGEESAT 6-03をリアルタイム追跡

Download on the App Store